Weather in Korotych

Ukraine / Kharkiv Region     49°56′47″N   36°02′25″E
temp.,
°C
wind,
m/s
gust,
m/s
humid.,
%
clouds,
%
prec.,
mm/h
press.,
hPa
HPBL,
m
17 april, sat
sat1700:00+7se4884100 3.2 1017491
03:00+5ssw23916 3.4 1017100
06:00+3ssw25885 0.0 1018124
09:00+7ssw45698 0.0 1019809
12:00+8ssw4564100 0.1 10191146
15:00+9ssw4566100 0.1 10191112
18:00+7sw578599 0.4 1020633
21:00+6wsw368695 0.4 1020354
18 april, sun
sun1800:00+6sw248593 0.0 1020337
03:00+6ssw2588100 0.1 1019245
06:00+6sw2588100 0.0 1019239
09:00+7sw2476100 0.1 1019321
12:00+10s356191 0.0 1018997
15:00+12ssw3556100 0.3 10171365
18:00+11s2362100 0.1 1017254
21:00+9nnw3478100 0.3 1018124
19 april, mon
mon1900:00+8ese237885 0.1 101753
03:00+7nnw118198 0.1 101715
06:00+7nne1182100 0.0 101712
09:00+10e1167100 0.0 1017319
12:00+13se1252100 0.0 1016836
15:00+15ssw2344100 0.0 10151688
18:00+14e0148100 0.0 1014572
21:00+12ese245698 0.0 101499
20 april, tue
tue2000:00+10ene356424 0.0 101294
03:00+10ene4970100 0.0 1012303
06:00+8ene71478100 0.0 1009478
09:00+10ene91578100 0.1 1007887
12:00+8ne91792100 6.2 1003875
15:00+8ene81694100 14.9 997806
18:00+10sse5139481 2.8 993857
21:00+10s61490100 2.9 995777
21 april, wed
wed2100:00+9s81389100 0.3 995795
03:00+4wsw71195100 3.2 999808
06:00+4wsw81394100 0.2 10041117
09:00+5wsw81289100 0.4 10081032
12:00+8wsw71075100 0.1 10121267
15:00+9wsw71068100 0.1 10151216
18:00+8sw4876100 0.0 1017695
21:00+7ssw3683100 0.1 1019209